Beaver Island, MI

10:12 PM EDT on July 27, 2017 (GMT -0400)
Beaver Island

Weather History for KSJX - October, 2013

Change the Weather History Date:

Sunday, October 6, 2013

  Actual Average Record
Temperature  
Mean Temperature 60 °F -  
Max Temperature 64 °F 57 °F 73 °F (2007)
Min Temperature 55 °F 43 °F 27 °F (1958)
Degree Days  
Heating Degree Days 6    
Growing Degree Days 10 (Base 50)    
Moisture  
Dew Point 56 °F    
Average Humidity 90    
Maximum Humidity 97    
Minimum Humidity 68    
Precipitation  
Precipitation 0.00 in - - ()
Sea Level Pressure  
Sea Level Pressure 29.68 in    
Wind  
Wind Speed 12 mph (SSE)    
Max Wind Speed 20 mph    
Max Gust Speed 32 mph    
Visibility 10 miles    
Events Rain    
Averages and records for this station are not official NWS values.
T = Trace of Precipitation, MM = Missing Value Source: NWS Daily Summary

Daily Weather History Graph

Daily Weather History Graph

Search for Another Location

Airport or City:

Trip Planner

Search our weather history database for the weather conditions in past years. The results will help you decide how hot, cold, wet, or windy it might be!

Date:

Astronomy

Oct. 06, 2013 Rise Set
Actual Time 7:47 AM EDT 7:12 PM EDT
Civil Twilight 7:17 AM EDT 7:42 PM EDT
Nautical Twilight 6:43 AM EDT 8:16 PM EDT
Astronomical Twilight 6:08 AM EDT 8:51 PM EDT
Moon 9:37 AM EDT (10/6) 8:03 PM EDT (10/6)
Length of Visible Light 12h 24m
Length of Day
11h 25m
Waxing Crescent, 3% of the Moon is Illuminated
Oct 6
Waxing Crescent
Oct 11
First Quarter
Oct 18
Full
Oct 26
Last Quarter
Nov 3
New

Hourly Weather History & Observations

Time (EDT) Temp. Dew Point Humidity Pressure Visibility Wind Dir Wind Speed Gust Speed Precip Events Conditions
12:16 AM 56.5 °F 54.1 °F 92% 29.85 in 10.0 mi East 19.6 mph 32.2 mph N/A   Mostly Cloudy
12:35 AM 56.8 °F 54.5 °F 92% 29.84 in 10.0 mi East 17.3 mph 25.3 mph N/A   Scattered Clouds
12:56 AM 57.2 °F 54.7 °F 91% 29.83 in 10.0 mi East 18.4 mph 25.3 mph N/A   Drizzle
1:15 AM 56.3 °F 54.3 °F 93% 29.83 in 10.0 mi East 18.4 mph 27.6 mph N/A Rain Light Rain
1:35 AM 55.9 °F 54.0 °F 93% 29.81 in 10.0 mi East 16.1 mph 26.5 mph N/A Rain Light Rain
1:55 AM 55.9 °F 54.5 °F 95% 29.80 in 10.0 mi East 13.8 mph 23.0 mph N/A Rain Light Rain
2:15 AM 56.3 °F 54.5 °F 94% 29.83 in 10.0 mi East 15.0 mph 20.7 mph N/A Rain Light Rain
2:36 AM 55.9 °F 54.5 °F 95% 29.80 in 10.0 mi East 11.5 mph 20.7 mph N/A Rain Light Rain
2:55 AM 56.3 °F 54.7 °F 94% 29.80 in 10.0 mi East 16.1 mph 19.6 mph N/A   Overcast
3:15 AM 56.5 °F 54.7 °F 94% 29.79 in 10.0 mi East 15.0 mph 21.9 mph N/A   Mostly Cloudy
3:36 AM 56.3 °F 54.7 °F 94% 29.77 in 10.0 mi East 13.8 mph 19.6 mph N/A   Mostly Cloudy
3:55 AM 56.5 °F 54.9 °F 94% 29.75 in 10.0 mi East 13.8 mph 20.7 mph N/A   Overcast
4:15 AM 56.5 °F 54.9 °F 94% 29.74 in 10.0 mi East 16.1 mph - N/A   Overcast
4:36 AM 56.7 °F 55.0 °F 94% 29.74 in 10.0 mi East 15.0 mph 24.2 mph N/A   Overcast
4:55 AM 57.0 °F 55.4 °F 94% 29.74 in 10.0 mi East 16.1 mph 21.9 mph N/A   Overcast
5:15 AM 57.2 °F 55.8 °F 95% 29.74 in 10.0 mi East 15.0 mph 21.9 mph N/A   Overcast
5:36 AM 57.4 °F 56.3 °F 96% 29.73 in 10.0 mi East 11.5 mph - N/A   Overcast
5:55 AM 57.7 °F 56.5 °F 96% 29.72 in 10.0 mi East 12.7 mph - N/A   Overcast
6:16 AM 58.1 °F 56.7 °F 95% 29.72 in 10.0 mi East 11.5 mph - N/A   Overcast
6:35 AM 58.3 °F 57.2 °F 96% 29.73 in 10.0 mi East 6.9 mph - N/A   Overcast
6:55 AM 58.6 °F 57.6 °F 96% 29.71 in 10.0 mi East 5.8 mph - N/A   Overcast
7:16 AM 59.0 °F 57.9 °F 96% 29.72 in 10.0 mi East 6.9 mph - N/A   Overcast
7:35 AM 59.2 °F 58.1 °F 96% 29.71 in 10.0 mi East 6.9 mph - N/A   Overcast
7:55 AM 59.9 °F 59.0 °F 97% 29.69 in 10.0 mi East 8.1 mph - N/A   Overcast
8:15 AM 59.9 °F 59.0 °F 97% 29.70 in 10.0 mi ESE 4.6 mph - N/A   Overcast
8:35 AM 60.3 °F 59.4 °F 97% 29.70 in 10.0 mi East 4.6 mph - N/A   Overcast
8:56 AM 60.8 °F 59.9 °F 97% 29.68 in 10.0 mi ENE 4.6 mph - N/A   Overcast
9:15 AM 61.0 °F 60.1 °F 97% 29.68 in 10.0 mi East 4.6 mph - N/A   Overcast
9:35 AM 61.3 °F 60.3 °F 96% 29.67 in 10.0 mi East 4.6 mph - N/A   Overcast
9:56 AM 61.7 °F 60.8 °F 97% 29.68 in 10.0 mi East 3.5 mph - N/A   Overcast
10:15 AM 62.1 °F 61.0 °F 96% 29.67 in 10.0 mi SE 3.5 mph - N/A Rain Light Rain
10:35 AM 62.6 °F 61.7 °F 97% 29.67 in 10.0 mi East 3.5 mph - N/A   Light Drizzle
10:55 AM 63.0 °F 61.9 °F 96% 29.65 in 4.0 mi Calm Calm - N/A Rain Light Rain
11:15 AM 63.0 °F 61.9 °F 96% 29.65 in 7.0 mi East 3.5 mph - N/A Rain Light Rain
11:36 AM 62.8 °F 61.7 °F 96% 29.65 in 2.0 mi East 5.8 mph - N/A Rain Rain
11:55 AM 63.0 °F 61.7 °F 96% 29.65 in 0.8 mi ESE 3.5 mph - N/A Rain Heavy Rain
12:15 PM 63.5 °F 62.2 °F 96% 29.65 in 10.0 mi Calm Calm - N/A   Overcast
12:36 PM 64.4 °F 63.0 °F 95% 29.65 in 10.0 mi SSW 11.5 mph 16.1 mph N/A   Overcast
12:55 PM 62.2 °F 60.8 °F 95% 29.65 in 4.0 mi WSW 12.7 mph 21.9 mph N/A   Overcast
1:15 PM 61.3 °F 59.9 °F 95% 29.66 in 10.0 mi WSW 11.5 mph 17.3 mph N/A   Overcast
1:36 PM 61.3 °F 59.9 °F 95% 29.66 in 5.0 mi SW 6.9 mph - N/A   Overcast
1:55 PM 61.7 °F 60.1 °F 94% 29.65 in 10.0 mi WSW 10.4 mph - N/A   Overcast
2:15 PM 62.1 °F 60.8 °F 96% 29.64 in 10.0 mi SW 10.4 mph - N/A   Overcast
2:35 PM 61.2 °F 59.4 °F 94% 29.65 in 10.0 mi SW 9.2 mph - N/A Rain Light Rain
2:55 PM 61.2 °F 59.5 °F 94% 29.64 in 10.0 mi SW 6.9 mph - N/A Rain Rain
3:16 PM 61.0 °F 59.4 °F 94% 29.64 in 10.0 mi SW 10.4 mph - N/A Rain Rain
3:35 PM 60.8 °F 58.8 °F 93% 29.63 in 10.0 mi SSW 5.8 mph - N/A Rain Light Rain
3:55 PM 60.8 °F 58.8 °F 93% 29.63 in 10.0 mi SSW 6.9 mph - N/A   Overcast
4:16 PM 59.4 °F 56.7 °F 91% 29.63 in 10.0 mi SSW 11.5 mph 18.4 mph N/A   Overcast
4:35 PM 60.1 °F 57.0 °F 90% 29.63 in 10.0 mi SSW 10.4 mph - N/A   Overcast
4:55 PM 59.4 °F 56.5 °F 90% 29.63 in 10.0 mi SSW 6.9 mph - N/A   Overcast
5:16 PM 59.2 °F 55.6 °F 88% 29.62 in 10.0 mi SSW 6.9 mph - N/A   Overcast
5:35 PM 59.2 °F 54.5 °F 84% 29.62 in 10.0 mi SW 6.9 mph - N/A   Mostly Cloudy
5:56 PM 58.6 °F 53.1 °F 82% 29.62 in 10.0 mi SW 8.1 mph - N/A   Scattered Clouds
6:15 PM 58.3 °F 52.3 °F 81% 29.62 in 10.0 mi SW 6.9 mph - N/A   Scattered Clouds
6:35 PM 58.6 °F 52.5 °F 80% 29.62 in 10.0 mi SW 10.4 mph - N/A   Mostly Cloudy
6:56 PM 58.5 °F 51.8 °F 79% 29.62 in 10.0 mi SW 9.2 mph - N/A   Scattered Clouds
7:15 PM 57.7 °F 51.1 °F 78% 29.63 in 10.0 mi SW 8.1 mph - N/A   Clear
7:35 PM 57.4 °F 51.8 °F 82% 29.63 in 10.0 mi SW 10.4 mph - N/A   Clear
7:56 PM 57.2 °F 51.6 °F 82% 29.62 in 10.0 mi SW 9.2 mph - N/A   Clear
8:15 PM 56.8 °F 51.4 °F 82% 29.62 in 10.0 mi SW 9.2 mph - N/A   Clear
8:36 PM 56.5 °F 51.3 °F 83% 29.62 in 10.0 mi SSW 8.1 mph - N/A   Clear
8:55 PM 56.7 °F 51.3 °F 82% 29.62 in 10.0 mi SW 8.1 mph - N/A   Clear
9:15 PM 56.7 °F 50.9 °F 81% 29.63 in 10.0 mi SW 6.9 mph - N/A   Clear
9:36 PM 56.8 °F 50.4 °F 79% 29.62 in 10.0 mi SW 6.9 mph - N/A   Clear
9:55 PM 57.0 °F 50.9 °F 80% 29.62 in 10.0 mi SW 8.1 mph - N/A   Mostly Cloudy
10:15 PM 57.6 °F 48.6 °F 72% 29.62 in 10.0 mi SW 10.4 mph - N/A   Mostly Cloudy
10:36 PM 58.3 °F 48.0 °F 69% 29.61 in 10.0 mi SW 10.4 mph - N/A   Scattered Clouds
10:55 PM 58.8 °F 48.4 °F 68% 29.61 in 10.0 mi SW 10.4 mph 19.6 mph N/A   Overcast
11:16 PM 59.0 °F 48.6 °F 68% 29.60 in 10.0 mi SW 11.5 mph 19.6 mph N/A   Overcast
11:35 PM 59.0 °F 48.9 °F 69% 29.60 in 10.0 mi WSW 12.7 mph - N/A   Overcast
11:55 PM 58.5 °F 52.0 °F 79% 29.59 in 10.0 mi WNW 6.9 mph - N/A   Overcast